Location: Geyikbay?r?
(36.8756°N, 30.4583°E)
Time: 13:01:01
(UTC+00:00)

SPOT 5 - Pass Details

Date: 05 August 2024
Orbit: 619 x 808 km, 98.1° (Epoch: 12 September)

Event Time Altitude Azimuth Distance (km) Brightness Sun altitude
Exits shadow 18:28:23 24° 148° (SSE) 1,622 4.1 -16.2°
Maximum altitude 18:31:35 62° 74° (ENE) 904 3.2 -16.7°
Drops below altitude 10° 18:36:51 10° 355° (N) 2,399 6.2 -17.5°
Sets 18:39:13 0° 352° (N) 3,328 7.0 -17.9°
